Flag for U.S.A. Weather past 2 weeks in McAllen, Texas, U.S.A.

Now
81 °F

Passing clouds.


Feels Like: 87 °F
Forecast: 77 / 89 °F
Wind: 6 mph from Southeast

Location: Miller International Airport

Current Time: Sep 15, 2014 at 10:11:17 PM

Latest Report: Sep 15, 2014 at 8:53 PM


Visibility: 9 mi

Pressure: 30.01 "Hg

Humidity: 85%

Dew point: 76 °F

Location of McAllenLocation

Historic Weather in McAllen — Graph

°F

McAllen temperature yesterday

Maximum temperature yesterday: 82 °F (at 4:53 PM)
Minimum temperature yesterday: 72 °F (at 7:01 AM)
Average temperature yesterday: 75 °F

Past Weeks' High & Low Weather Summary

 TemperatureHumidityPressure
High97 °F (Sep 1, 3:53 PM)100% (Sep 12, 9:59 PM)30.13 "Hg (Sep 12, 9:59 PM)
Low71 °F (Sep 13, 9:53 PM)40% (Sep 8, 4:53 PM)29.77 "Hg (Sep 10, 5:53 PM)
Average82 °F80%29.94 "Hg
* Reported Aug 31 7:53 PM — Sep 15 7:53 PM, McAllen, Weather by CustomWeather, © 2014

Note: Actual official high and low records may vary slightly from our data, if they occured in-between our weather recording intervals... More about our weather records

Advertising

McAllen weather history for previous 24 hours

 ConditionsComfort  
Time TempWeatherWind HumidityBarometerVisibility
7:53 PM
Sep 15
84 °FPartly sunny.5 mph67%30.00 "Hg10 mi
6:53 PM86 °FPartly sunny.8 mph61%29.98 "Hg10 mi
5:53 PM86 °FBroken clouds.6 mph63%29.98 "Hg10 mi
4:53 PM86 °FMostly cloudy.9 mph63%29.98 "Hg10 mi
3:53 PM86 °FPassing clouds.3 mph63%29.99 "Hg10 mi
2:53 PM87 °FCloudy.8 mph63%30.01 "Hg10 mi
1:53 PM83 °FScattered clouds.7 mph72%30.04 "Hg10 mi
12:53 PM80 °FMore clouds than sun.9 mph79%30.07 "Hg10 mi
11:53 AM78 °FMostly cloudy.8 mph82%30.08 "Hg9 mi
10:53 AM76 °FOvercast.9 mph85%30.08 "Hg8 mi
9:53 AM75 °FSunny.6 mph89%30.08 "Hg7 mi
8:53 AM73 °FPartly sunny.9 mph90%30.07 "Hg7 mi
7:53 AM72 °FPassing clouds.7 mph93%30.06 "Hg7 mi
6:53 AM72 °FOvercast.6 mph93%30.06 "Hg10 mi
5:53 AM72 °FClear.5 mph93%30.05 "Hg10 mi
4:53 AM72 °FPassing clouds.6 mph93%30.05 "Hg10 mi
3:53 AM73 °FOvercast.6 mph94%30.05 "Hg9 mi
2:53 AM73 °FPassing clouds.3 mph94%30.08 "Hg9 mi
1:53 AM73 °FClear.5 mph94%30.08 "Hg10 mi
12:53 AM74 °FClear.7 mph91%30.08 "Hg10 mi
11:53 PM
Sep 14
75 °FClear.7 mph90%30.09 "Hg10 mi
10:53 PM76 °FClear.6 mph88%30.09 "Hg9 mi
Weather by CustomWeather, © 2014

See weather overviewHow to use our weather pages